Home > Weather > Bamako > Past weeks

Flag for Mali Weather for the Past 2 Weeks in Bamako, Mali

Now
104 °F

Passing clouds.


Feels Like: 102 °F
Forecast: 75 / 105 °F
Wind: 6 mph from Southeast

Location: Bamako / Senou

Current Time: Apr 29, 2016 at 2:41:36 PM

Latest Report: Apr 29, 2016 at 2:00 PM


Visibility: N/A

Pressure: 29.77 "Hg

Humidity: 19%

Dew Point: 54 °F

Location of BamakoLocation

Historic Weather in Bamako — Graph

°F

Bamako Temperature Yesterday

Maximum temperature yesterday: 104 °F (at 5:30 PM)
Minimum temperature yesterday: 82 °F (at 3:30 AM)
Average temperature yesterday: 92 °F

High & Low Weather Summary for the Past Weeks

 TemperatureHumidityPressure
High109 °F (Apr 16, 3:00 PM)100% (Apr 16, 3:00 AM)32.84 "Hg (Apr 16, 3:00 AM)
Low37 °F (Apr 16, 3:00 AM)7% (Apr 15, 3:30 PM)29.71 "Hg (Apr 25, 4:30 PM)
Average94 °F29%29.86 "Hg
* Reported Apr 14 1:00 PM — Apr 29 1:30 PM, Bamako, Weather by CustomWeather, © 2016

Note: Actual official high and low records may vary slightly from our data, if they occured in-between our weather recording intervals... More about our weather records

Advertising

Bamako Weather History for the Previous 24 Hours

Scroll right to see more
 ConditionsComfort  
Time TempWeatherWind HumidityBarometerVisibility
1:30 PM
Fri, Apr 29
104 °FPassing clouds.6 mph19%29.80 "HgN/A
1:00 PM102 °FPassing clouds.6 mph21%29.80 "HgN/A
12:30 PM100 °FSunny.9 mph24%29.83 "Hg10 mi
12:00 PM99 °FSunny.9 mph31%29.86 "Hg10 mi
11:30 AM97 °FSunny.12 mph32%29.86 "Hg10 mi
11:00 AM97 °FSunny.12 mph34%29.86 "Hg10 mi
10:30 AM95 °FSunny.9 mph39%29.89 "Hg10 mi
10:00 AM93 °FSunny.9 mph39%29.89 "Hg10 mi
9:30 AM91 °FSunny.12 mph41%29.92 "Hg10 mi
9:00 AM90 °FSunny.12 mph46%29.89 "Hg10 mi
8:30 AM90 °FSunny.14 mph43%29.92 "Hg10 mi
8:00 AM88 °FPassing clouds.6 mph46%29.92 "HgN/A
7:30 AM86 °FPassing clouds.6 mph49%29.92 "HgN/A
7:00 AM84 °FPassing clouds.6 mph51%29.89 "HgN/A
6:30 AM82 °FSunny.2 mph58%29.89 "Hg10 mi
6:00 AM84 °FClear.7 mph51%29.89 "Hg10 mi
5:00 AM86 °FClear.5 mph49%32.84 "Hg10 mi
4:30 AM86 °FClear.7 mph49%29.86 "Hg10 mi
3:00 AM88 °FClear.7 mph46%29.86 "Hg10 mi
2:30 AM88 °FClear.9 mph46%29.86 "Hg10 mi
2:00 AM90 °FClear.9 mph43%29.86 "Hg10 mi
1:30 AM90 °FClear.12 mph43%29.86 "Hg10 mi
1:00 AM88 °FClear.5 mph43%29.83 "Hg10 mi
12:00 AM84 °FClear.5 mph55%29.83 "Hg10 mi
11:00 PM
Thu, Apr 28
90 °FClear.3 mph38%29.86 "Hg10 mi
10:30 PM91 °FPassing clouds.5 mph36%29.83 "HgN/A
9:30 PM93 °FClear.6 mph32%29.83 "Hg10 mi
9:00 PM91 °FClear.5 mph41%29.80 "Hg10 mi
8:30 PM97 °FClear.7 mph27%29.80 "Hg10 mi
8:00 PM97 °FClear.7 mph25%29.80 "Hg10 mi
7:30 PM97 °FClear.6 mph25%29.77 "Hg10 mi
7:00 PM99 °FClear.5 mph24%29.77 "Hg10 mi
6:30 PM100 °FPassing clouds.5 mph21%29.77 "HgN/A
6:00 PM102 °FPassing clouds.5 mph18%29.77 "HgN/A
5:30 PM104 °FPassing clouds.5 mph19%29.77 "HgN/A
5:00 PM102 °FScattered clouds.6 mph18%29.77 "HgN/A
4:30 PM102 °FScattered clouds.7 mph18%29.77 "HgN/A
4:00 PM102 °FScattered clouds.2 mph18%29.77 "HgN/A
3:30 PM102 °FScattered clouds.3 mph20%29.77 "HgN/A
3:00 PM102 °FScattered clouds.7 mph21%29.80 "HgN/A
2:30 PM102 °FScattered clouds.8 mph21%29.80 "HgN/A
2:00 PM100 °FScattered clouds.8 mph24%29.80 "HgN/A
Weather by CustomWeather, © 2016

See weather overviewHow to use our weather pages